Nellis AFB, NV

7:09 AM PDT on March 30, 2017 (GMT -0700)
Nellis Air Force Base

Weather History for KLSV - May, 2013

Change the Weather History Date:

Wednesday, May 1, 2013

  Actual Average Record
Temperature  
Mean Temperature 72 °F -  
Max Temperature 81 °F 82 °F 98 °F (2001)
Min Temperature 64 °F 57 °F 46 °F (1999)
Cooling Degree Days 7    
Growing Degree Days 22 (Base 50)    
Moisture  
Dew Point -1 °F    
Average Humidity 5    
Maximum Humidity 8    
Minimum Humidity 4    
Precipitation  
Precipitation 0.00 in - - ()
Sea Level Pressure  
Sea Level Pressure 30.04 in    
Wind  
Wind Speed 21 mph (NNE)    
Max Wind Speed 32 mph    
Max Gust Speed 46 mph    
Visibility 10 miles    
Events      
Averages and records for this station are not official NWS values.
T = Trace of Precipitation, MM = Missing Value Source: NWS Daily Summary

Daily Weather History Graph

Daily Weather History Graph

Search for Another Location

Airport or City:

Trip Planner

Search our weather history database for the weather conditions in past years. The results will help you decide how hot, cold, wet, or windy it might be!

Date:

Astronomy

May. 01, 2013 Rise Set
Actual Time 5:46 AM PDT 7:28 PM PDT
Civil Twilight 5:19 AM PDT 7:55 PM PDT
Nautical Twilight 4:45 AM PDT 8:29 PM PDT
Astronomical Twilight 4:10 AM PDT 9:04 PM PDT
Moon 12:40 AM PDT (5/1) 11:29 AM PDT (5/1)
Length of Visible Light 14h 36m
Length of Day
13h 41m
Waning Gibbous, 58% of the Moon is Illuminated
May 1
Waning Gibbous
May 2
Last Quarter
May 9
New
May 17
First Quarter
May 24
Full

Hourly Weather History & Observations

Time (PDT) Temp. Dew Point Humidity Pressure Visibility Wind Dir Wind Speed Gust Speed Precip Events Conditions
12:58 AM 78.3 °F 9.7 °F 7% 29.69 in 10.0 mi NE 21.9 mph 38.0 mph N/A   Clear
1:58 AM 75.2 °F 7.3 °F 7% 29.74 in 10.0 mi NNE 23.0 mph 36.8 mph N/A   Clear
2:47 AM 73.4 °F 3.2 °F 6% 29.87 in 10.0 mi North 18.4 mph 46.0 mph N/A   Clear
2:50 AM 73.4 °F 3.2 °F 6% 29.87 in 10.0 mi NNE 17.3 mph 46.0 mph N/A   Clear
2:53 AM 73.4 °F 3.2 °F 6% 29.86 in 10.0 mi NE 28.8 mph 38.0 mph N/A   Clear
2:58 AM 72.9 °F 2.1 °F 6% 29.80 in 10.0 mi NNE 20.7 mph 38.0 mph N/A   Clear
3:58 AM 71.1 °F -3.1 °F 5% 29.84 in 10.0 mi NNE 32.2 mph 42.6 mph N/A   Clear
4:58 AM 68.7 °F -4.7 °F 5% 29.90 in 10.0 mi NNE 26.5 mph 36.8 mph N/A   Clear
5:58 AM 66.7 °F -2.4 °F 6% 29.96 in 10.0 mi North 19.6 mph 36.8 mph N/A   Clear
6:58 AM 66.4 °F -2.7 °F 6% 30.00 in 10.0 mi North 18.4 mph 35.7 mph N/A   Clear
7:58 AM 67.6 °F 1.6 °F 7% 30.04 in 10.0 mi North 21.9 mph 23.0 mph N/A   Clear
8:58 AM 69.8 °F -0.2 °F 6% 30.06 in 10.0 mi NNW 16.1 mph - N/A   Clear
9:58 AM 72.1 °F -2.4 °F 5% 30.08 in 10.0 mi North 12.7 mph 23.0 mph N/A   Clear
10:25 AM 73.4 °F -2.2 °F 5% 30.13 in 10.0 mi NNE 15.0 mph 26.5 mph N/A   Clear
10:58 AM 73.9 °F -5.6 °F 4% 30.09 in 10.0 mi NE 24.2 mph 27.6 mph N/A   Clear
11:05 AM 73.4 °F -5.8 °F 4% 30.14 in 10.0 mi NNW 21.9 mph 27.6 mph N/A   Clear
11:20 AM 73.4 °F -5.8 °F 4% 30.14 in 10.0 mi NE 20.7 mph 27.6 mph N/A   Clear
11:21 AM 73.4 °F -5.8 °F 4% 30.14 in 10.0 mi NE 21.9 mph 27.6 mph N/A   Clear
11:22 AM 75.2 °F -5.8 °F 4% 30.14 in 10.0 mi NNE 20.7 mph 27.6 mph N/A   Clear
11:23 AM 75.2 °F -5.8 °F 4% 30.14 in 10.0 mi NNE 23.0 mph 31.1 mph N/A   Clear
11:58 AM 75.4 °F -4.7 °F 4% 30.09 in 10.0 mi NE 18.4 mph 29.9 mph N/A   Clear
12:58 PM 76.5 °F -4.0 °F 4% 30.09 in 10.0 mi NNE 15.0 mph 33.4 mph N/A   Clear
1:58 PM 78.1 °F -8.9 °F 4% 30.07 in 10.0 mi NE 16.1 mph 26.5 mph N/A   Clear
2:58 PM 79.9 °F -5.1 °F 4% 30.06 in 10.0 mi NE 19.6 mph 29.9 mph N/A   Clear
3:58 PM 79.7 °F 3.4 °F 5% 30.05 in 10.0 mi NNE 12.7 mph 23.0 mph N/A   Clear
4:58 PM 80.1 °F -1.3 °F 4% 30.05 in 10.0 mi NNE 18.4 mph 28.8 mph N/A   Clear
5:58 PM 79.0 °F 2.8 °F 5% 30.05 in 10.0 mi NE 26.5 mph 29.9 mph N/A   Clear
7:58 PM 70.5 °F 3.7 °F 7% 30.12 in 10.0 mi NE 32.2 mph 41.4 mph N/A   Clear
8:55 PM 68.0 °F 1.4 °F 7% 30.21 in 10.0 mi NE 32.2 mph 39.1 mph N/A   Clear
9:58 PM 66.2 °F 0.5 °F 7% 30.22 in - NE 27.6 mph 40.3 mph N/A   Clear
10:58 PM 64.2 °F 1.8 °F 8% 30.26 in - NE 16.1 mph 21.9 mph N/A   Clear
11:58 PM 64.0 °F -1.3 °F 7% 30.29 in - NNE 10.4 mph 24.2 mph N/A   Clear